Weather in Zelenodolsk

Russia / Orenburg Oblast     52°22′45″N   59°53′32″E
temp.,
°C
wind,
m/s
gust,
m/s
humid.,
%
clouds,
%
prec.,
mm/h
press.,
hPa
HPBL,
m
17 june, thu
thu1723:00+20ne365893 0.0 101486
02:00+21ese365083 0.0 1012106
05:00+19wsw2346100 0.0 101133
08:00+24s494190 0.0 1009237
11:00+30sw792599 0.0 1008950
14:00+33sw91420100 0.0 10063761
17:00+31wsw8103153 0.0 10052956
20:00+25wnw91355100 0.0 1006794
18 june, fri
fri1823:00+19nw915775 0.4 1008773
02:00+15nnw714680 0.0 1010606
05:00+14nnw714670 0.0 1011536
08:00+16n811542 0.0 1012758
11:00+20n9103924 0.0 10132453
14:00+21n8103129 0.0 10152778
17:00+20nne6103310 0.0 10162679
20:00+18ne584510 0.0 1018494
19 june, sat
sat1923:00+15ne26494 0.0 1020225
02:00+11nnw3364100 0.0 102233
05:00+11nw3568100 0.0 1023105
08:00+15nnw465113 0.0 1023441
11:00+19nnw573897 0.0 10231863
14:00+21nnw673358 0.0 10222105
17:00+22nw683686 0.0 10202343
20:00+17nnw4105691 0.0 1020527
20 june, sun
sun2023:00+17wnw51256100 0.0 1019569
02:00+16wnw61369100 0.1 1018652
05:00+16wnw7148056 0.4 1017467
08:00+20wnw8137012 0.0 1016637
11:00+26nw9124913 0.0 10151791
14:00+27nnw91345100 0.0 10142513
17:00+27nnw10144324 0.0 10142270
20:00+22nnw812684 0.7 1015790
21 june, mon
mon2123:00+18nnw513820 0.8 1016435
02:00+13nnw411610 0.0 1017213
05:00+11nnw411680 0.0 1019202
08:00+17n58480 0.0 1020563
11:00+20n68320 0.0 10201486
14:00+22n68295 0.0 10191814
17:00+23n68325 0.0 10191963
20:00+20ne47446 0.0 1020230